CGCMQ CYPK-CYPK

Flight info

Callsign CGCMQ
Flight time 0h 3m
Altitude
Route CIRCUITS
Aircraft C172

Departure

Time 2026-05-04 23:24
Airport Pitt Meadows Regional Airport (CYPK)

Arrival

Time 2026-05-04 23:28
Airport Pitt Meadows Regional Airport (CYPK)
Time Latitude Longitude Altitude Speed Heading
2026-05-04 23:22 49.21127 -122.70345 20 ft 0 kts 222°
2026-05-04 23:22 49.21126 -122.70347 20 ft 1 kts 228°
2026-05-04 23:23 49.21137 -122.70383 20 ft 5 kts 316°
2026-05-04 23:23 49.21166 -122.70423 20 ft 9 kts 332°
2026-05-04 23:23 49.21222 -122.70401 20 ft 0 kts 331°
2026-05-04 23:23 49.21293 -122.70426 20 ft 12 kts 339°
2026-05-04 23:24 49.21347 -122.70787 24 ft 66 kts 278°
2026-05-04 23:24 49.21414 -122.71589 214 ft 82 kts 274°
2026-05-04 23:24 49.21462 -122.72448 464 ft 85 kts 271°
2026-05-04 23:24 49.21388 -122.73286 792 ft 78 kts 243°
2026-05-04 23:25 49.20937 -122.73804 999 ft 87 kts 192°
2026-05-04 23:25 49.20307 -122.73887 1072 ft 92 kts 166°
2026-05-04 23:25 49.19879 -122.73117 988 ft 108 kts 106°
2026-05-04 23:25 49.19743 -122.72010 977 ft 103 kts 99°
2026-05-04 23:26 49.19643 -122.70951 977 ft 100 kts 96°
2026-05-04 23:26 49.19604 -122.69967 961 ft 83 kts 90°
2026-05-04 23:26 49.19854 -122.69289 815 ft 75 kts 26°
2026-05-04 23:26 49.20337 -122.69111 654 ft 73 kts
2026-05-04 23:27 49.20847 -122.69041 498 ft 73 kts 359°
2026-05-04 23:27 49.21248 -122.69420 335 ft 71 kts 290°
2026-05-04 23:27 49.21298 -122.70114 143 ft 66 kts 270°
2026-05-04 23:27 49.21344 -122.70771 22 ft 50 kts 272°
2026-05-04 23:28 49.21381 -122.71194 15 ft 41 kts 271°
2026-05-04 23:28 49.21440 -122.71892 125 ft 77 kts 275°
2026-05-04 23:28 49.21503 -122.72707 405 ft 78 kts 273°
2026-05-04 23:28 49.21419 -122.73463 738 ft 71 kts 230°
2026-05-04 23:29 49.20972 -122.73690 997 ft 78 kts 181°
2026-05-04 23:29 49.20378 -122.73701 997 ft 86 kts 178°
2026-05-04 23:29 49.19838 -122.73310 1043 ft 92 kts 134°
2026-05-04 23:29 49.19600 -122.72378 1043 ft 98 kts 99°
2026-05-04 23:30 49.19567 -122.71319 1031 ft 101 kts 88°
2026-05-04 23:30 49.19620 -122.70231 952 ft 105 kts 85°
2026-05-04 23:30 49.19680 -122.69167 872 ft 92 kts 76°
2026-05-04 23:30 49.20032 -122.68548 766 ft 77 kts 23°
2026-05-04 23:31 49.20560 -122.68477 659 ft 76 kts 353°
2026-05-04 23:31 49.21065 -122.68735 517 ft 72 kts 333°
2026-05-04 23:31 49.21275 -122.69327 303 ft 64 kts 263°
2026-05-04 23:31 49.21286 -122.69998 144 ft 64 kts 272°
2026-05-04 23:32 49.21334 -122.70646 23 ft 53 kts 274°
2026-05-04 23:32 49.21347 -122.70956 17 ft 2 kts 225°
2026-05-04 23:32 49.21281 -122.70909 17 ft 2 kts 137°
2026-05-04 23:33 49.21280 -122.70908 17 ft 0 kts 139°
2026-05-04 23:33 49.21279 -122.70907 17 ft 2 kts 140°
2026-05-04 23:33 49.21240 -122.70859 17 ft 11 kts 141°
2026-05-04 23:34 49.21194 -122.70750 17 ft 14 kts 97°
2026-05-04 23:34 49.21197 -122.70632 18 ft 7 kts 40°
2026-05-04 23:34 49.21196 -122.70599 19 ft 0 kts 172°